Location: Apfelsbach
(48.4667°N, 14.0000°E)
Time: 05:53:17
(UTC+00:00)

Daily predictions for brighter satellites

Satellite Brightness Start Highest point End
(mag) Time Altitude Azimuth Time Altitude Azimuth Time Altitude Azimuth
SJ 16-02 3.7 00:03:06 13° ESE 00:03:53 14° E 00:06:06 10° ENE
SL-16 R/B 3.6 00:03:17 10° NNW 00:08:33 37° NE 00:13:47 10° ESE
Cosmos 1025 Rocket 2.9 00:08:05 10° N 00:12:12 82° NW 00:12:12 82° NW
Cosmos 1777 Rocket 4.2 00:12:23 54° SE 00:13:09 60° ESE 00:18:22 10° NNE
CZ-4 R/B 4.2 00:08:48 10° N 00:13:40 54° WNW 00:14:24 49° WSW
NOSS 0 Rocket 3.9 00:08:22 10° NW 00:14:34 66° WSW 00:15:54 53° SSW
CZ-2D R/B 3.1 00:09:44 10° NNE 00:14:53 40° E 00:16:30 33° SE
COSMOS 2428 3.4 00:11:41 10° NW 00:16:52 38° WSW 00:16:52 38° WSW
GEOS 3 Rocket 3.7 00:11:41 10° NE 00:17:06 68° SE 00:18:01 57° S
Meteor 1-29 3.7 00:14:00 10° NNE 00:16:43 52° N 00:16:43 52° N
ADEOS II 4.2 00:14:12 10° NE 00:17:48 18° E 00:20:30 13° SE
Cosmos 2360 Rocket 4.3 00:16:05 10° WNW 00:17:41 12° W 00:17:41 12° W
Lacrosse 4 Rocket 2.8 00:17:22 27° WNW 00:18:18 30° NW 00:22:02 10° NNE
Cosmos 2026 Rocket 3.9 00:21:28 10° N 00:27:35 81° E 00:29:55 40° SSE
Cosmos 1536 Rocket 3.4 00:23:51 10° NNW 00:28:12 75° W 00:28:12 75° W
KORONAS-FOTON 4.2 00:25:35 10° N 00:29:19 54° ENE 00:29:28 54° E
Cosmos 1627 Rocket 4.4 00:25:57 10° N 00:32:09 90° WSW 00:34:25 42° S
Cosmos 2297 Rocket 2.3 00:30:52 48° SSE 00:32:14 63° ESE 00:37:50 10° NNE
Cosmos 1634 Rocket 4.0 00:31:20 43° S 00:33:32 78° E 00:39:47 10° NNE
Cosmos 1980 3.7 00:28:04 10° NNW 00:33:42 64° WSW 00:34:49 52° SSW
Cosmos 2219 3.2 00:32:41 52° S 00:34:02 75° ESE 00:39:40 10° NNE
Cosmos 2333 Rocket 3.6 00:31:49 10° NW 00:35:43 22° W 00:35:43 22° W
MOZ.5/SAFIR/RUBIN 5/SL-8 3.7 00:38:19 62° SSW 00:38:57 72° WSW 00:43:43 10° NNW
ERBS 4.3 00:37:17 10° NW 00:38:34 21° NW 00:38:34 21° NW
Cosmos 1626 3.7 00:37:26 10° N 00:40:48 31° ENE 00:42:04 25° ESE
Cosmos 1766 4.0 00:41:49 41° ESE 00:42:17 43° E 00:46:00 10° NNE
Cosmos 2237 Rocket 2.2 00:37:56 10° NW 00:43:29 57° WSW 00:44:32 49° SSW
Helios 1B rocket 3.9 00:49:37 10° N 00:53:00 25° WNW 00:53:28 25° WNW
Cosmos 1607 4.0 00:50:31 10° NW 00:57:00 82° NE 01:03:29 10° SE
Cosmos 1538 Rocket 4.2 00:54:19 10° NNW 00:59:17 48° WSW 00:59:58 45° SW
CZ-4C R/B 3.1 01:00:00 61° WNW 01:00:00 61° WNW 01:03:10 10° NNW
ATLAS 3B R/B 4.1 00:55:24 10° W 01:01:10 31° NNW 01:07:03 10° NE
SL-16 R/B 2.6 00:59:59 36° S 01:02:35 64° WSW 01:08:50 10° NNW
COBE Rocket 4.0 01:00:26 28° SSE 01:02:51 66° ENE 01:07:28 10° N
Okean 2 Rocket 4.3 01:02:15 28° W 01:02:53 29° WNW 01:06:49 10° N
SAR-Lupe-3 4.4 01:00:10 10° NNE 01:03:46 80° WNW 01:03:55 77° WSW
USA 215 3.7 00:57:51 10° ENE 01:04:06 46° SE 01:06:48 31° S
FALCON 9 DEB 3.6 01:08:48 10° WNW 01:12:17 63° NNE 01:15:43 10° ESE
Resurs 1-4 Rocket 2.1 01:07:11 10° N 01:12:27 72° WNW 01:14:25 39° SW
Cosmos 1805 3.2 01:13:32 59° WSW 01:14:02 66° WNW 01:17:54 10° N
Okean 1-7 Rocket 4.2 01:11:13 10° N 01:15:34 54° ENE 01:18:34 19° SSE
Cosmos 2266 Rocket 4.3 01:11:25 10° N 01:17:47 66° ENE 01:23:42 11° SSE
BREEZE-M R/B 4.2 01:19:05 21° E 01:19:05 21° E 01:20:07 10° E
SL-14 R/B 3.3 01:14:05 10° N 01:18:03 78° E 01:19:22 40° SSE
Okean 1 Rocket 3.3 01:18:56 44° WSW 01:19:52 53° WNW 01:24:09 10° N
Meteor 1-15 Rocket 4.4 01:17:58 35° SW 01:20:08 57° WNW 01:25:41 10° N
Uosat 12 SS-18 rocket 4.4 01:18:27 36° WSW 01:20:16 63° NW 01:24:42 10° NE
Cosmos 2227 Rocket 2.3 01:19:04 35° SW 01:21:29 69° WNW 01:27:10 10° NNE
Cosmos 1674 3.6 01:18:32 10° NNW 01:21:38 32° W 01:21:38 32° W
Cosmos 1655 Rocket 4.0 01:17:10 10° N 01:23:29 90° W 01:28:01 20° S
Cosmos 2112 Rocket 4.0 01:19:30 10° NNW 01:24:48 86° ENE 01:29:34 12° SSE
AQUA 3.8 01:22:06 10° N 01:26:53 74° WNW 01:28:45 37° SSW
UNK 4.4 01:27:34 34° WSW 01:28:16 35° W 01:32:35 10° NNW
Cosmos 1733 3.2 01:27:32 50° SW 01:28:18 65° WNW 01:32:08 10° N
CBERS-1 4.0 01:26:23 10° NNE 01:31:32 81° ESE 01:34:16 28° S
Cosmos 1937 Rocket 4.4 01:29:31 20° SSE 01:32:52 44° ESE 01:37:55 10° NE
Cosmos 1758 4.2 01:34:05 21° SSE 01:36:27 47° E 01:40:20 10° NNE
NOSS 3-1 (C) 3.8 01:33:35 25° S 01:36:34 49° ESE 01:42:36 10° NE
USA 267 3.4 01:30:58 10° ESE 01:37:29 77° NNE 01:44:02 10° NW
ARIANE 5 R/B 3.4 01:33:27 10° NNE 01:38:30 47° E 01:42:41 15° S
Cosmos 1898 Rocket 3.7 01:35:45 26° S 01:38:42 66° ESE 01:43:53 10° NNE
Meteor 2-19 Rocket 4.5 01:34:20 10° NNW 01:40:28 67° W 01:44:42 21° S
SJ 16-02 1.3 01:40:06 35° SW 01:41:52 71° WNW 01:46:18 10° NNE
Cosmos 1680 Rocket 3.5 01:37:03 10° NNW 01:42:13 60° WSW 01:45:53 19° S
Cosmos 2082 3.7 01:39:45 29° SW 01:42:42 79° WNW 01:48:22 10° NNE
Cosmos 1726 3.7 01:41:51 12° SSE 01:44:43 30° E 01:47:59 10° NNE
Cosmos 990 Rocket 4.0 01:44:13 27° SSW 01:47:10 83° ESE 01:52:22 10° NNE
IDEFIX/ARIANE 42P 3.8 01:43:00 10° NNE 01:47:51 38° E 01:52:41 10° SSE
Cosmos 1340 Rocket 3.0 01:48:30 24° S 01:50:45 69° E 01:54:42 10° NNE
SL-16 R/B 2.5 01:47:24 10° NW 01:52:47 44° WSW 01:56:46 17° S
Cosmos 1626 Rocket 4.0 01:49:00 10° N 01:53:18 61° ENE 01:57:33 10° SSE
Cosmos 1455 Rocket 3.0 01:51:23 27° SSW 01:53:45 78° W 01:58:14 10° N
SL-08 R/B 3.4 01:49:37 10° SSE 01:54:29 85° WSW 01:59:29 10° NNW
SL-4 R/B 1.9 01:54:33 39° SW 01:54:41 39° SSW 01:57:52 10° SE
CZ-2D R/B 3.1 01:49:56 10° N 01:54:53 36° WNW 01:57:49 21° WSW
Cosmos 1461 3.0 01:52:47 30° SSW 01:54:56 81° SE 01:59:32 10° NE
IRS-1D 3.6 01:50:30 10° N 01:55:30 63° WNW 01:58:30 24° SW
Meteor 1-24 Rocket 4.0 01:50:35 10° NNW 01:55:47 45° W 01:58:47 23° SSW
NPP 4.4 01:51:22 10° N 01:56:22 39° WNW 01:59:16 22° WSW
OPS 8737 4.4 01:55:16 33° SSW 01:56:38 66° SE 01:59:38 10° NE
ADEOS II 2.1 01:52:47 10° N 01:58:02 71° WNW 02:01:25 22° SSW
Cosmos 1953 3.4 01:55:00 11° SSE 01:58:35 42° E 02:02:25 10° NNE
CZ-2D R/B 4.2 01:56:57 10° NNE 02:00:52 46° E 02:04:19 12° S
Cosmos 1892 Rocket 4.1 01:56:44 10° NNW 02:00:57 41° W 02:03:00 25° SW
CZ-4B R/B 3.8 01:56:40 10° N 02:01:15 48° WNW 02:03:51 24° SW
Meteor 2-21 4.5 02:03:02 10° N 02:09:08 86° E 02:15:12 10° S
Meteor 2-10 4.5 02:03:54 11° S 02:09:08 67° E 02:14:44 10° NNE
USA 229 DEB 3.8 02:05:21 19° SSW 02:10:13 72° SE 02:17:05 10° NE
USA 229 3.8 02:05:27 19° SSW 02:10:17 71° SE 02:17:08 10° NE
IRS-1C 4.1 02:07:01 10° NNE 02:12:22 74° WNW 02:16:32 17° SSW
Cosmos 2263 Rocket 2.9 02:07:55 12° S 02:12:55 50° ESE 02:18:18 10° NE
Cosmos 1626 3.6 02:13:04 10° NW 02:15:51 20° W 02:16:34 19° WSW
Cosmos 2297 Rocket 3.5 02:12:41 13° W 02:16:43 28° NW 02:21:33 10° NNE
Cosmos 2098 Rocket 4.0 02:15:26 10° NNW 02:20:01 43° W 02:25:09 12° SSW
NOSS 2-3 (C) 4.2 02:17:45 16° SSW 02:20:58 53° ESE 02:25:52 10° NE
NOSS 3-1 (A) 3.6 02:16:56 16° SSW 02:21:22 61° ESE 02:27:39 10° NE
Meteor 1-28 Rocket 3.6 02:20:46 16° SSW 02:23:28 43° W 02:27:07 10° NNW
Cosmos 1703 4.3 02:20:21 10° N 02:24:14 49° ENE 02:28:04 10° SSE
H-2A R/B 2.0 02:26:12 10° SSE 02:30:19 81° ENE 02:34:26 10° NNW
Timation 1 Rocket 4.4 02:26:51 15° SSW 02:31:56 82° WNW 02:37:57 10° NNE
Cosmos 1603 3.7 02:26:51 10° NNW 02:32:36 74° WSW 02:38:17 10° SSE
Cosmos 1470 3.7 02:32:06 17° SW 02:34:33 32° WNW 02:38:11 10° N
SeaSat 1 3.4 02:33:52 10° NE 02:38:36 45° ESE 02:43:19 10° S
Cosmos 1544 Rocket 4.3 02:37:11 15° SW 02:40:32 38° WNW 02:44:44 10° N
Spot 4 Rocket 4.1 02:39:01 10° N 02:44:11 71° WNW 02:49:19 10° SSW
USA 215 3.5 02:40:50 10° NE 02:47:22 71° NNW 02:53:52 10° WSW
SL-16 R/B 4.4 02:45:41 10° W 02:47:24 11° W 02:49:07 10° WNW
FALCON 9 DEB 3.9 02:46:03 10° WNW 02:49:09 30° SW 02:52:13 10° SSE
Resurs 1-4 Rocket 4.2 02:48:54 10° NNW 02:51:23 13° NW 02:53:50 10° W
Cosmos 1048 Rocket 4.1 02:48:01 10° NNW 02:53:11 84° ENE 02:58:22 10° SSE
Cosmos 1553 Rocket 4.1 02:49:04 10° S 02:55:07 83° E 03:01:16 10° N
Cosmos 1602 Rocket 4.1 02:54:27 10° NNW 02:58:31 38° W 03:02:30 10° SSW
Cosmos 1943 3.3 02:53:13 10° NW 02:58:42 55° WSW 03:04:10 10° S
Cosmos 1606 Rocket 4.0 02:58:30 10° S 03:02:57 70° E 03:07:26 10° NNE
Cosmos 1745 Rocket 4.2 02:57:07 10° N 03:03:28 83° E 03:09:43 10° S
Cosmos 2227 Rocket 4.1 03:02:55 10° WNW 03:06:37 17° NW 03:10:21 10° N
ERS-2 2.7 03:11:33 10° S 03:14:57 38° W 03:18:24 10° NNW
MSX 4.0 03:09:18 10° N 03:15:01 63° WNW 03:20:42 10° SSW
